Location: Blairvadach
(56.2780°N, 6.9720°W)
Time: 13:49:04
(UTC+00:00)

Envisat - Pass Details

Date: 14 November 2019
Orbit: 764 x 766 km, 98.1° (Epoch: 08 December)

Event Time Altitude Azimuth Distance (km) Brightness Sun altitude
Rises 18:43:49 0° 180° (S) 3,224 6.3 -19.5°
Reaches altitude 10° 18:46:11 10° 186° (S) 2,302 5.6 -19.8°
Maximum altitude 18:51:06 49° 261° (W) 989 4.0 -20.5°
Drops below altitude 10° 18:56:03 10° 336° (NNW) 2,317 5.7 -21.2°
Sets 18:58:27 0° 342° (NNW) 3,248 6.5 -21.5°
